Torna al catalogo

FENGYUN 1C DEB

AttivoSSO
NORAD 30749·DEBRIS·🇨🇳 China

Lanciato May 10, 1999 da Taiyuan Satellite Launch Center

Loading…

Prossimi Passaggi (prossime 24 ore)

TLE

AggiornatoSource: Space-Track

Epoca: Sep 13, 2026, 06:33 UTC

1 30749U 99025ATK 26256.27355053  .00000307  00000-0  23444-3 0  9999
2 30749  98.8599 279.7457 0057616 185.9573 174.0913 13.99895693998077

Traccia FENGYUN 1C DEB in tempo reale con AllMySat

Download on the App Store